Terminal Aerodrome Forecast
Issued by NWS State College, PA

Home | Current Version | Previous Version | Text Only | Print | Product List | Glossary On
Versions: 1 2 3 4 5 6 7 8 9 10 11 12 13 14 15 16 17 18 19 20 21 22 23 24 25 26 27 28 29 30 31 32 33 34 35 36 37 38 39 40 41 42 43 44 45 46 47
000
FTUS41 KCTP 130304 AAB
TAFIPT
TAF AMD
KIPT 130304Z 1303/1324 10005KT P6SM SCT060
     FM131000 10003KT 5SM BR OVC050
     FM131200 13005KT P6SM VCSH OVC100
     FM131800 20010KT P6SM OVC100=

USA.gov is the U.S. government's official web portal to all federal, state and local government web resources and services.